Regional Weather Roundup
Issued by NWS Bismarck, ND

Home | Current Version | Previous Version | Text Only | Print | Product List | Glossary On
Versions: 1 2 3 4 5 6 7 8 9 10 11 12 13 14 15 16 17 18 19 20 21 22 23 24 25 26 27 28 29 30 31 32 33 34 35 36 37 38 39 40 41 42 43 44 45 46 47 48 49 50
000
ASUS43 KBIS 040710
RWRBIS

NWR BROADCAST TEXT
NATIONAL WEATHER SERVICE BISMARCK ND
200 AM CDT SAT JUL 04 2015

NOTE: "FAIR" INDICATES FEW OR NO CLOUDS BELOW 12,000 FEET WITH NO
SIGNIFICANT WEATHER AND/OR OBSTRUCTIONS TO VISIBILITY.


CITY           SKY/WX    TMP DP  RH WIND       PRES   REMARKS
WILLISTON      CLEAR     73  63  70 S8        29.82F
MINOT          CLEAR     64  61  90 CALM      29.84F FOG
MINOT AFB      CLEAR     65  65 100 S6        29.83F FOG
BISMARCK       CLOUDY    64  63  96 SE3       29.89F FOG
DICKINSON      CLEAR     66  62  87 S9        29.87F FOG
GARRISON         N/A     68  63  84 SE6       29.87F
HETTINGER ARPT CLEAR     64  60  87 SE6       29.92F FOG
JAMESTOWN      CLOUDY    67  63  87 S6        29.91S FOG
BEACH          FAIR      64  64 100 SE12      29.87F
CROSBY         FAIR      66  66 100 S9        29.82S FOG
HARVEY         FAIR      68  63  83 S9        29.88F HAZE
HAZEN          FAIR      68  63  83 S10       29.87F HAZE
LINTON         FAIR      66  66 100 SE9       29.91S FOG
MANDAN         FAIR      66  64  94 S7        29.90F FOG
OAKES            N/A     63  63 100 SE6       29.92S FOG
STANLEY        FAIR      64  64 100 CALM      29.87S FOG
$$

CITY           SKY/WX    TMP DP  RH WIND       PRES   REMARKS
GRAND FORKS    MOCLDY    59  57  94 S3        29.89S FOG
GRAND FORKS AF CLEAR     60  59  97 S2        29.89F FOG
DEVILS LAKE    CLEAR     68  59  73 SE9       29.88F
FARGO          CLEAR     64  60  87 SE5       29.90S FOG
CANDO          FAIR      63  61  94 S8        29.88F FOG
CAVALIER       FAIR      63  59  88 S5        29.88F FOG
GRAFTON        FAIR      59  59 100 S3        29.89F FOG
GWINNER          N/A     66  66 100 S6        29.92S
LANGDON        FAIR      61  59  94 S8        29.90F FOG
ROLLA          CLOUDY    64  63  94 S10       29.89F
WALHALLA       FAIR      63  63 100 MISG      29.87F FOG
$$

CITY           SKY/WX    TMP DP  RH WIND       PRES   REMARKS
ABERDEEN       CLOUDY    66  62  87 S7        29.92S FOG
MOBRIDGE       CLEAR     70  68  93 S8        29.89S FOG
BUFFALO          N/A     65  59  81 SE12      29.85F
RAPID CITY     PTCLDY    63  59  87 S5        29.94F
GLASGOW        CLEAR     67  57  70 E14       29.76F
SIDNEY         CLEAR     66  61  82 S5        29.82F
WOLF POINT     CLEAR     68  60  75 NE3       29.79F HAZE
GLENDIVE       CLEAR     70  59  68 SE7       29.84F
MILES CITY     PTCLDY    71  60  68 S8        29.81F
BAKER          PTCLDY    64  59  83 SE6       29.88F
$$

CITY           SKY/WX    TMP DP  RH WIND       PRES   REMARKS
BILLINGS       CLEAR     74  50  42 N7        29.87S
GREAT FALLS    PTCLDY    68  49  50 SW10      29.84R
REGINA         LGT RAIN  68  63  83 SE10      29.76F SMOKE
ESTEVAN        CLEAR     64  63  94 S6        29.81F SMOKE
$$



USA.gov is the U.S. government's official web portal to all federal, state and local government web resources and services.